Location: Brunembert
(50.7122°N, 1.8935°E)
Time: 04:34:21
(UTC+00:00)

Orbus 7S? - Pass Details

Date: 22 April 2021
Orbit: 334 x 6415 km, 56.9° (Epoch: 05 May)

Event Time Altitude Azimuth Distance (km) Brightness Sun altitude
Rises 20:07:10 0° 240° (WSW) 2,200 6.8 -10.3°
Reaches altitude 10° 20:08:42 10° 241° (WSW) 1,486 5.9 -10.5°
Maximum altitude 20:11:40 85° 330° (NNW) 577 3.4 -10.9°
Drops below altitude 10° 20:17:35 10° 59° (ENE) 2,911 6.8 -11.7°
Sets 20:21:43 0° 61° (ENE) 4,689 7.8 -12.2°
